QPF
0.01 0.01 0.01 0.01 0.01 0.01 0.01 0.01 0.01 0.02 0.02 0.02 0.02 0.01 0.00 0.01 0.01 0.01 0.01 0.02 0.01 0.00 0.00 0.01 0.02 0.01 0.01 0.00 0.00 0.00 0.00 0.00 0.00 0.00 0.00 0.00 0.00 0.00 0.00 0.00 0.00 0.00 0.00 0.00
0.01 0.01 0.00 0.01 0.01 0.01 0.01 0.02 0.02 0.02 0.02 0.03 0.01 0.01 0.00 0.01 0.01 0.00 0.00 0.00 0.00 0.00 0.00 0.00 0.01 0.01 0.00 0.00 0.00 0.00 0.00 0.00 0.00 0.00 0.00 0.00 0.00 0.00 0.00 0.00 0.00 0.00 0.00 0.00
0.01 0.01 0.01 0.01 0.02 0.01 0.01 0.02 0.02 0.02 0.02 0.02 0.01 0.01 0.01 0.01 0.00 0.00 0.00 0.00 0.00 0.00 0.00 0.00 0.01 0.01 0.00 0.00 0.00 0.00 0.00 0.00 0.00 0.00 0.00 0.00 0.00 0.00 0.00 0.00 0.00 0.00 0.00 0.00
0.01 0.01 0.01 0.01 0.02 0.02 0.02 0.02 0.01 0.02 0.02 0.02 0.01 0.01 0.01 0.01 0.00 0.00 0.00 0.00 0.00 0.00 0.01 0.00 0.00 0.00 0.00 0.00 0.00 0.00 0.00 0.00 0.00 0.00 0.00 0.00 0.00 0.00 0.00 0.00 0.00 0.00 0.00 0.00
0.02 0.01 0.01 0.01 0.01 0.01 0.02 0.02 0.02 0.03 0.02 0.01 0.00 0.00 0.00 0.00 0.00 0.00 0.00 0.00 0.00 0.00 0.00 0.00 0.00 0.00 0.00 0.00 0.00 0.00 0.00 0.00 0.00 0.00 0.00 0.00 0.00 0.00 0.00 0.00 0.00 0.00 0.00 0.00
0.03 0.02 0.02 0.02 0.02 0.01 0.02 0.03 0.03 0.02 0.01 0.01 0.00 0.00 0.00 0.00 0.00 0.00 0.00 0.00 0.00 0.00 0.00 0.00 0.00 0.00 0.00 0.00 0.00 0.00 0.00 0.00 0.00 0.00 0.00 0.00 0.00 0.00 0.00 0.00 0.00 0.00 0.00 0.00
0.05 0.05 0.03 0.02 0.02 0.02 0.01 0.02 0.02 0.01 0.01 0.01 0.00 0.00 0.00 0.00 0.00 0.00 0.00 0.00 0.00 0.00 0.00 0.00 0.00 0.00 0.00 0.00 0.00 0.00 0.00 0.00 0.00 0.00 0.00 0.00 0.00 0.00 0.00 0.00 0.00 0.00 0.00 0.00
0.03 0.03 0.02 0.02 0.02 0.02 0.01 0.01 0.01 0.01 0.00 0.00 0.00 0.00 0.00 0.00 0.00 0.00 0.00 0.00 0.00 0.00 0.00 0.00 0.00 0.00 0.00 0.00 0.00 0.00 0.00 0.00 0.00 0.00 0.00 0.00 0.00 0.00 0.00 0.00 0.00 0.00 0.00 0.00
0.01 0.01 0.01 0.01 0.01 0.01 0.01 0.00 0.00 0.00 0.00 0.00 0.00 0.00 0.00 0.00 0.00 0.00 0.00 0.00 0.00 0.00 0.00 0.00 0.00 0.00 0.00 0.00 0.00 0.00 0.00 0.00 0.00 0.00 0.00 0.00 0.00 0.00 0.00 0.00 0.00 0.00 0.00 0.00
0.00 0.01 0.01 0.01 0.01 0.01 0.00 0.00 0.00 0.00 0.01 0.00 0.00 0.00 0.00 0.00 0.00 0.00 0.00 0.00 0.00 0.00 0.00 0.00 0.00 0.00 0.00 0.00 0.00 0.00 0.00 0.00 0.00 0.00 0.00 0.00 0.00 0.00 0.00 0.00 0.00 0.00 0.00 0.00
0.00 0.00 0.01 0.01 0.01 0.00 0.00 0.00 0.00 0.00 0.00 0.00 0.00 0.00 0.00 0.00 0.00 0.00 0.00 0.00 0.00 0.00 0.00 0.00 0.00 0.00 0.00 0.00 0.00 0.00 0.00 0.00 0.00 0.00 0.00 0.00 0.00 0.00 0.00 0.00 0.00 0.00 0.00 0.00
0.00 0.00 0.00 0.00 0.00 0.00 0.00 0.00 0.00 0.00 0.00 0.00 0.00 0.00 0.00 0.00 0.00 0.00 0.00 0.00 0.00 0.00 0.00 0.00 0.00 0.00 0.00 0.00 0.00 0.00 0.00 0.00 0.00 0.00 0.00 0.00 0.00 0.00 0.00 0.00 0.00 0.00 0.00 0.00
0.00 0.00 0.00 0.00 0.00 0.00 0.00 0.00 0.00 0.00 0.00 0.00 0.00 0.00 0.00 0.00 0.00 0.00 0.00 0.00 0.00 0.00 0.00 0.00 0.00 0.00 0.00 0.00 0.00 0.00 0.00 0.00 0.00 0.00 0.00 0.00 0.00 0.00 0.00 0.00 0.00 0.00 0.00 0.00
0.00 0.00 0.00 0.00 0.00 0.00 0.00 0.00 0.00 0.00 0.00 0.00 0.00 0.00 0.00 0.00 0.00 0.00 0.00 0.00 0.00 0.00 0.00 0.00 0.00 0.00 0.00 0.00 0.00 0.00 0.00 0.00 0.00 0.00 0.00 0.00 0.00 0.00 0.00 0.00 0.00 0.00 0.00 0.00
0.00 0.00 0.00 0.00 0.00 0.00 0.00 0.00 0.00 0.00 0.00 0.00 0.00 0.00 0.00 0.00 0.00 0.00 0.00 0.00 0.00 0.00 0.00 0.00 0.00 0.00 0.00 0.00 0.00 0.00 0.00 0.00 0.00 0.00 0.00 0.00 0.00 0.00 0.00 0.00 0.00 0.00 0.00 0.00
0.00 0.00 0.00 0.00 0.00 0.00 0.00 0.00 0.00 0.00 0.00 0.00 0.00 0.00 0.00 0.00 0.00 0.00 0.00 0.00 0.00 0.00 0.00 0.00 0.00 0.00 0.00 0.00 0.00 0.00 0.00 0.00 0.00 0.00 0.00 0.00 0.00 0.00 0.00 0.00 0.00 0.00 0.00 0.00
0.00 0.00 0.00 0.00 0.00 0.00 0.00 0.00 0.00 0.00 0.00 0.00 0.00 0.00 0.00 0.00 0.00 0.00 0.00 0.00 0.00 0.00 0.00 0.00 0.00 0.00 0.00 0.00 0.00 0.00 0.00 0.00 0.00 0.00 0.00 0.00 0.00 0.00 0.00 0.00 0.00 0.00 0.00 0.00
0.00 0.00 0.00 0.00 0.00 0.00 0.00 0.00 0.00 0.00 0.00 0.00 0.00 0.00 0.00 0.00 0.00 0.00 0.00 0.00 0.00 0.00 0.00 0.00 0.00 0.00 0.00 0.00 0.00 0.00 0.00 0.00 0.00 0.00 0.00 0.00 0.00 0.00 0.00 0.00 0.00 0.00 0.00 0.00
0.00 0.00 0.00 0.00 0.00 0.00 0.00 0.00 0.00 0.00 0.00 0.00 0.00 0.00 0.00 0.00 0.00 0.00 0.00 0.00 0.00 0.00 0.00 0.00 0.00 0.00 0.00 0.00 0.00 0.00 0.00 0.00 0.00 0.00 0.00 0.00 0.00 0.00 0.00 0.00 0.00 0.00 0.00 0.00
0.00 0.00 0.00 0.00 0.00 0.00 0.00 0.00 0.00 0.00 0.00 0.00 0.00 0.00 0.00 0.00 0.00 0.00 0.00 0.00 0.00 0.00 0.00 0.00 0.00 0.00 0.00 0.00 0.00 0.00 0.00 0.00 0.00 0.00 0.00 0.00 0.00 0.00 0.00 0.00 0.00 0.00 0.00 0.00
0.00 0.00 0.00 0.00 0.00 0.00 0.00 0.00 0.00 0.00 0.00 0.00 0.00 0.00 0.00 0.00 0.00 0.00 0.00 0.00 0.00 0.00 0.00 0.00 0.00 0.00 0.00 0.00 0.00 0.00 0.00 0.00 0.00 0.00 0.00 0.00 0.00 0.00 0.00 0.00 0.00 0.00 0.00 0.00
0.00 0.00 0.00 0.00 0.00 0.00 0.00 0.00 0.00 0.00 0.00 0.00 0.00 0.00 0.00 0.00 0.00 0.00 0.00 0.00 0.00 0.00 0.00 0.00 0.00 0.00 0.00 0.00 0.00 0.00 0.00 0.00 0.00 0.00 0.00 0.00 0.00 0.00 0.00 0.00 0.00 0.00 0.00 0.00
0.00 0.00 0.00 0.00 0.00 0.00 0.00 0.00 0.00 0.00 0.00 0.00 0.00 0.00 0.00 0.00 0.00 0.00 0.00 0.00 0.00 0.00 0.00 0.00 0.00 0.00 0.00 0.00 0.00 0.00 0.00 0.00 0.00 0.00 0.00 0.00 0.00 0.00 0.00 0.00 0.00 0.00 0.00 0.00
0.00 0.00 0.00 0.00 0.00 0.00 0.00 0.00 0.00 0.00 0.00 0.00 0.00 0.00 0.00 0.00 0.00 0.00 0.00 0.00 0.00 0.00 0.00 0.00 0.00 0.00 0.00 0.00 0.00 0.00 0.00 0.00 0.00 0.00 0.00 0.00 0.00 0.00 0.00 0.00 0.00 0.00 0.00 0.00
0.00 0.00 0.00 0.00 0.00 0.00 0.00 0.00 0.00 0.00 0.00 0.00 0.00 0.00 0.00 0.00 0.00 0.00 0.00 0.00 0.00 0.00 0.00 0.00 0.00 0.00 0.00 0.00 0.00 0.00 0.00 0.00 0.00 0.00 0.00 0.00 0.00 0.00 0.00 0.00 0.00 0.00 0.00 0.00
0.00 0.00 0.00 0.00 0.00 0.00 0.00 0.00 0.00 0.00 0.00 0.00 0.00 0.00 0.00 0.00 0.00 0.00 0.00 0.00 0.00 0.00 0.00 0.00 0.00 0.00 0.00 0.00 0.00 0.00 0.00 0.00 0.00 0.00 0.00 0.00 0.00 0.00 0.00 0.00 0.00 0.00 0.00 0.00
MSLP
1012.33 1012.82 1013.20 1013.44 1013.56 1013.60 1013.59 1013.56 1013.54 1013.54 1013.54 1013.53 1013.47 1013.34 1013.13 1012.84 1012.51 1012.17 1011.87 1011.64 1011.50 1011.49 1011.58 1011.78 1012.04 1012.34 1012.66 1012.97 1013.28 1013.56 1013.83 1014.08 1014.30 1014.48 1014.64 1014.74 1014.80 1014.80 1014.76 1014.69 1014.59 1014.46 1014.32 1014.16
1012.83 1013.21 1013.47 1013.61 1013.66 1013.64 1013.61 1013.60 1013.62 1013.67 1013.73 1013.76 1013.73 1013.60 1013.36 1013.03 1012.63 1012.22 1011.83 1011.54 1011.36 1011.31 1011.41 1011.61 1011.90 1012.23 1012.58 1012.92 1013.24 1013.54 1013.81 1014.06 1014.28 1014.48 1014.65 1014.77 1014.85 1014.88 1014.85 1014.79 1014.69 1014.57 1014.43 1014.28
1013.16 1013.43 1013.59 1013.64 1013.62 1013.57 1013.55 1013.57 1013.66 1013.78 1013.91 1014.00 1014.00 1013.89 1013.64 1013.26 1012.80 1012.31 1011.87 1011.51 1011.29 1011.22 1011.30 1011.51 1011.80 1012.15 1012.51 1012.87 1013.19 1013.49 1013.75 1014.00 1014.23 1014.44 1014.62 1014.77 1014.87 1014.91 1014.91 1014.85 1014.76 1014.64 1014.50 1014.35
1013.32 1013.48 1013.54 1013.52 1013.47 1013.43 1013.44 1013.53 1013.70 1013.91 1014.13 1014.28 1014.33 1014.23 1013.97 1013.56 1013.06 1012.52 1012.01 1011.60 1011.34 1011.24 1011.30 1011.50 1011.79 1012.13 1012.48 1012.82 1013.13 1013.41 1013.67 1013.91 1014.14 1014.36 1014.56 1014.73 1014.85 1014.92 1014.92 1014.88 1014.79 1014.67 1014.54 1014.39
1013.30 1013.37 1013.36 1013.30 1013.25 1013.25 1013.33 1013.51 1013.78 1014.09 1014.39 1014.62 1014.71 1014.64 1014.38 1013.95 1013.42 1012.85 1012.30 1011.86 1011.56 1011.42 1011.46 1011.62 1011.88 1012.19 1012.51 1012.81 1013.08 1013.33 1013.56 1013.78 1014.00 1014.23 1014.44 1014.63 1014.78 1014.87 1014.89 1014.86 1014.77 1014.66 1014.52 1014.38
1013.14 1013.15 1013.10 1013.04 1013.02 1013.08 1013.25 1013.52 1013.89 1014.30 1014.69 1014.99 1015.14 1015.09 1014.85 1014.43 1013.89 1013.30 1012.74 1012.28 1011.95 1011.79 1011.79 1011.92 1012.12 1012.37 1012.63 1012.86 1013.07 1013.25 1013.43 1013.62 1013.82 1014.04 1014.27 1014.47 1014.64 1014.75 1014.79 1014.77 1014.69 1014.57 1014.44 1014.31
1012.89 1012.86 1012.81 1012.78 1012.81 1012.94 1013.19 1013.57 1014.03 1014.53 1014.99 1015.35 1015.55 1015.55 1015.34 1014.95 1014.43 1013.86 1013.32 1012.85 1012.52 1012.34 1012.30 1012.37 1012.51 1012.68 1012.84 1012.98 1013.10 1013.20 1013.31 1013.44 1013.61 1013.80 1014.02 1014.23 1014.42 1014.54 1014.60 1014.59 1014.51 1014.40 1014.27 1014.14
1012.59 1012.56 1012.52 1012.53 1012.62 1012.82 1013.16 1013.61 1014.15 1014.71 1015.24 1015.65 1015.90 1015.95 1015.80 1015.46 1015.00 1014.48 1013.97 1013.54 1013.22 1013.03 1012.95 1012.96 1013.02 1013.10 1013.15 1013.18 1013.19 1013.19 1013.21 1013.26 1013.37 1013.53 1013.72 1013.93 1014.11 1014.24 1014.30 1014.30 1014.22 1014.11 1013.99 1013.87
1012.28 1012.27 1012.27 1012.32 1012.47 1012.73 1013.11 1013.62 1014.20 1014.80 1015.37 1015.83 1016.13 1016.24 1016.15 1015.90 1015.52 1015.08 1014.65 1014.27 1013.98 1013.79 1013.69 1013.65 1013.63 1013.61 1013.55 1013.47 1013.35 1013.24 1013.16 1013.12 1013.15 1013.25 1013.40 1013.58 1013.74 1013.86 1013.92 1013.91 1013.83 1013.72 1013.60 1013.49
1012.01 1012.03 1012.07 1012.17 1012.35 1012.64 1013.05 1013.57 1014.16 1014.78 1015.36 1015.84 1016.19 1016.37 1016.37 1016.22 1015.95 1015.62 1015.28 1014.98 1014.74 1014.57 1014.46 1014.37 1014.29 1014.17 1014.02 1013.83 1013.60 1013.38 1013.19 1013.06 1013.01 1013.03 1013.12 1013.24 1013.36 1013.45 1013.49 1013.46 1013.38 1013.26 1013.14 1013.03
1011.80 1011.86 1011.94 1012.07 1012.27 1012.57 1012.97 1013.46 1014.02 1014.62 1015.19 1015.69 1016.07 1016.32 1016.42 1016.38 1016.24 1016.04 1015.82 1015.61 1015.43 1015.30 1015.18 1015.07 1014.94 1014.76 1014.53 1014.25 1013.94 1013.63 1013.35 1013.13 1012.99 1012.93 1012.94 1012.99 1013.05 1013.09 1013.09 1013.03 1012.93 1012.79 1012.66 1012.55
1011.69 1011.79 1011.91 1012.05 1012.25 1012.52 1012.87 1013.31 1013.82 1014.36 1014.90 1015.39 1015.81 1016.12 1016.31 1016.39 1016.38 1016.31 1016.21 1016.11 1016.00 1015.91 1015.81 1015.70 1015.54 1015.32 1015.05 1014.72 1014.36 1013.99 1013.65 1013.37 1013.15 1013.01 1012.94 1012.91 1012.89 1012.86 1012.79 1012.69 1012.55 1012.38 1012.23 1012.11
1011.71 1011.85 1011.98 1012.13 1012.30 1012.52 1012.81 1013.17 1013.59 1014.06 1014.54 1015.01 1015.44 1015.80 1016.07 1016.27 1016.38 1016.44 1016.46 1016.45 1016.43 1016.39 1016.32 1016.21 1016.06 1015.84 1015.55 1015.22 1014.85 1014.46 1014.10 1013.77 1013.50 1013.30 1013.14 1013.02 1012.92 1012.81 1012.67 1012.50 1012.30 1012.10 1011.91 1011.76
1011.85 1012.02 1012.17 1012.30 1012.44 1012.60 1012.80 1013.06 1013.37 1013.74 1014.15 1014.58 1015.00 1015.40 1015.74 1016.03 1016.26 1016.43 1016.56 1016.64 1016.69 1016.71 1016.68 1016.60 1016.47 1016.27 1016.02 1015.71 1015.37 1015.01 1014.65 1014.32 1014.02 1013.77 1013.55 1013.35 1013.16 1012.96 1012.74 1012.49 1012.23 1011.97 1011.73 1011.53
1012.11 1012.30 1012.45 1012.57 1012.66 1012.74 1012.85 1012.99 1013.19 1013.45 1013.77 1014.14 1014.54 1014.95 1015.35 1015.71 1016.03 1016.31 1016.53 1016.70 1016.82 1016.88 1016.90 1016.86 1016.77 1016.62 1016.41 1016.17 1015.88 1015.57 1015.26 1014.95 1014.65 1014.37 1014.11 1013.84 1013.57 1013.28 1012.98 1012.65 1012.32 1011.99 1011.68 1011.41
1012.43 1012.63 1012.78 1012.87 1012.91 1012.92 1012.92 1012.95 1013.03 1013.17 1013.40 1013.70 1014.06 1014.47 1014.90 1015.33 1015.73 1016.09 1016.40 1016.64 1016.82 1016.95 1017.01 1017.01 1016.96 1016.87 1016.73 1016.55 1016.34 1016.10 1015.85 1015.58 1015.31 1015.02 1014.72 1014.41 1014.07 1013.71 1013.32 1012.92 1012.51 1012.11 1011.73 1011.39
1012.74 1012.95 1013.09 1013.16 1013.14 1013.07 1012.98 1012.89 1012.85 1012.89 1013.01 1013.24 1013.57 1013.97 1014.43 1014.91 1015.38 1015.82 1016.20 1016.52 1016.76 1016.93 1017.03 1017.08 1017.07 1017.03 1016.95 1016.84 1016.70 1016.53 1016.34 1016.13 1015.88 1015.60 1015.29 1014.94 1014.56 1014.14 1013.69 1013.22 1012.75 1012.27 1011.82 1011.40
1012.96 1013.16 1013.29 1013.32 1013.25 1013.12 1012.94 1012.75 1012.61 1012.54 1012.59 1012.76 1013.05 1013.45 1013.94 1014.47 1015.00 1015.52 1015.97 1016.36 1016.66 1016.88 1017.02 1017.10 1017.13 1017.12 1017.08 1017.02 1016.93 1016.83 1016.69 1016.51 1016.30 1016.03 1015.72 1015.35 1014.94 1014.48 1013.99 1013.47 1012.94 1012.42 1011.90 1011.41
1013.01 1013.19 1013.29 1013.28 1013.17 1012.97 1012.72 1012.47 1012.25 1012.11 1012.10 1012.23 1012.51 1012.92 1013.44 1014.02 1014.63 1015.22 1015.75 1016.21 1016.57 1016.83 1017.01 1017.11 1017.16 1017.17 1017.14 1017.10 1017.04 1016.96 1016.85 1016.70 1016.50 1016.25 1015.94 1015.57 1015.14 1014.66 1014.15 1013.60 1013.05 1012.48 1011.93 1011.39
1012.86 1012.99 1013.04 1012.99 1012.84 1012.60 1012.31 1012.01 1011.75 1011.59 1011.55 1011.67 1011.96 1012.39 1012.96 1013.60 1014.29 1014.95 1015.57 1016.09 1016.51 1016.82 1017.02 1017.13 1017.18 1017.18 1017.15 1017.10 1017.03 1016.95 1016.83 1016.69 1016.49 1016.25 1015.94 1015.57 1015.14 1014.66 1014.14 1013.59 1013.03 1012.46 1011.88 1011.32
1012.48 1012.55 1012.55 1012.46 1012.27 1012.01 1011.71 1011.40 1011.14 1010.99 1010.96 1011.11 1011.43 1011.91 1012.53 1013.25 1014.00 1014.74 1015.43 1016.01 1016.48 1016.83 1017.05 1017.17 1017.20 1017.18 1017.12 1017.03 1016.93 1016.82 1016.68 1016.52 1016.31 1016.06 1015.75 1015.38 1014.96 1014.49 1013.98 1013.45 1012.89 1012.33 1011.76 1011.20
1011.93 1011.91 1011.84 1011.71 1011.51 1011.25 1010.97 1010.69 1010.48 1010.37 1010.40 1010.60 1010.97 1011.51 1012.19 1012.97 1013.79 1014.59 1015.33 1015.97 1016.48 1016.85 1017.08 1017.19 1017.21 1017.15 1017.05 1016.92 1016.77 1016.61 1016.43 1016.23 1016.01 1015.74 1015.42 1015.05 1014.64 1014.19 1013.70 1013.18 1012.66 1012.12 1011.58 1011.03
1011.26 1011.15 1011.01 1010.84 1010.64 1010.41 1010.17 1009.97 1009.83 1009.80 1009.91 1010.19 1010.63 1011.23 1011.96 1012.79 1013.65 1014.49 1015.26 1015.93 1016.45 1016.84 1017.07 1017.17 1017.17 1017.08 1016.93 1016.76 1016.56 1016.35 1016.13 1015.90 1015.64 1015.35 1015.02 1014.65 1014.24 1013.80 1013.33 1012.84 1012.34 1011.83 1011.32 1010.80
1010.57 1010.36 1010.15 1009.96 1009.76 1009.58 1009.42 1009.31 1009.28 1009.36 1009.56 1009.92 1010.43 1011.08 1011.85 1012.69 1013.56 1014.40 1015.18 1015.84 1016.37 1016.75 1016.97 1017.06 1017.04 1016.93 1016.75 1016.54 1016.31 1016.06 1015.81 1015.54 1015.25 1014.94 1014.60 1014.22 1013.81 1013.37 1012.90 1012.42 1011.94 1011.45 1010.96 1010.48
1009.90 1009.60 1009.35 1009.14 1008.97 1008.85 1008.79 1008.79 1008.88 1009.06 1009.37 1009.81 1010.37 1011.05 1011.82 1012.64 1013.49 1014.30 1015.04 1015.68 1016.18 1016.54 1016.75 1016.83 1016.79 1016.67 1016.48 1016.25 1016.00 1015.74 1015.46 1015.17 1014.86 1014.53 1014.17 1013.78 1013.35 1012.90 1012.43 1011.94 1011.45 1010.96 1010.48 1010.02
1009.31 1008.94 1008.65 1008.44 1008.32 1008.27 1008.31 1008.42 1008.63 1008.92 1009.32 1009.81 1010.41 1011.08 1011.83 1012.61 1013.39 1014.14 1014.82 1015.40 1015.86 1016.18 1016.37 1016.44 1016.41 1016.29 1016.11 1015.88 1015.63 1015.37 1015.09 1014.79 1014.47 1014.12 1013.74 1013.33 1012.87 1012.39 1011.89 1011.37 1010.85 1010.34 1009.85 1009.37
Thickness
5692 5692 5691 5700 5709 5714 5717 5717 5718 5724 5733 5733 5733 5738 5746 5752 5752 5753 5756 5757 5758 5759 5762 5762 5760 5758 5756 5754 5752 5748 5745 5742 5738 5734 5731 5728 5726 5724 5722 5719 5715 5711 5709 5706
5686 5689 5702 5708 5710 5712 5714 5714 5716 5722 5731 5732 5733 5737 5747 5750 5751 5753 5755 5757 5758 5759 5760 5758 5757 5756 5755 5753 5750 5748 5745 5742 5738 5733 5731 5728 5725 5723 5721 5717 5713 5710 5708 5705
5689 5696 5705 5704 5704 5707 5711 5714 5716 5718 5725 5732 5731 5732 5741 5749 5752 5752 5755 5757 5760 5759 5759 5758 5756 5755 5753 5751 5749 5747 5744 5741 5737 5733 5730 5726 5723 5721 5719 5715 5713 5709 5706 5703
5693 5701 5702 5703 5705 5710 5706 5717 5719 5719 5722 5721 5728 5720 5735 5744 5745 5748 5751 5755 5757 5758 5758 5756 5755 5753 5752 5751 5750 5747 5744 5741 5737 5733 5729 5726 5721 5719 5717 5715 5712 5709 5706 5703
5694 5701 5702 5702 5708 5713 5713 5720 5722 5722 5723 5723 5728 5728 5732 5742 5738 5744 5749 5753 5755 5757 5758 5756 5755 5754 5753 5751 5748 5746 5743 5740 5736 5733 5728 5725 5722 5720 5718 5714 5711 5709 5706 5703
5700 5709 5710 5710 5715 5718 5719 5719 5719 5723 5725 5713 5722 5726 5722 5736 5739 5743 5749 5752 5755 5756 5757 5756 5755 5753 5751 5749 5745 5743 5740 5737 5734 5730 5728 5725 5721 5718 5714 5712 5710 5708 5706 5704
5695 5704 5712 5717 5711 5715 5719 5715 5705 5705 5707 5711 5724 5725 5723 5737 5743 5745 5747 5751 5754 5755 5755 5754 5751 5749 5747 5745 5743 5741 5738 5735 5732 5729 5727 5725 5722 5718 5715 5712 5710 5707 5706 5704
5697 5695 5710 5717 5719 5718 5721 5723 5711 5703 5706 5714 5722 5722 5729 5740 5743 5746 5748 5750 5752 5753 5753 5752 5750 5748 5746 5744 5742 5740 5737 5734 5731 5729 5727 5725 5722 5718 5716 5713 5710 5708 5706 5704
5708 5703 5717 5721 5727 5728 5722 5723 5731 5727 5723 5718 5721 5726 5734 5739 5740 5742 5744 5746 5747 5749 5749 5749 5748 5747 5745 5743 5742 5739 5736 5734 5731 5729 5726 5724 5722 5718 5716 5713 5711 5709 5707 5704
5724 5710 5715 5721 5726 5725 5730 5731 5728 5725 5711 5705 5711 5718 5722 5729 5732 5737 5740 5742 5744 5746 5747 5747 5746 5745 5744 5743 5741 5739 5736 5734 5731 5728 5726 5723 5721 5718 5715 5713 5710 5708 5707 5704
5730 5720 5713 5719 5719 5721 5724 5725 5728 5728 5726 5714 5704 5713 5730 5730 5733 5734 5736 5739 5741 5742 5742 5743 5743 5743 5742 5741 5739 5737 5735 5732 5730 5728 5725 5722 5720 5717 5715 5712 5710 5708 5706 5704
5730 5731 5718 5720 5729 5734 5734 5733 5733 5724 5719 5723 5718 5714 5732 5732 5733 5734 5735 5736 5737 5738 5738 5738 5738 5738 5737 5736 5736 5735 5734 5731 5729 5727 5724 5722 5720 5717 5714 5713 5710 5709 5706 5704
5731 5730 5715 5712 5719 5727 5727 5727 5731 5734 5730 5723 5717 5714 5730 5732 5731 5731 5731 5733 5734 5734 5734 5735 5734 5734 5733 5733 5732 5732 5731 5730 5728 5725 5723 5720 5719 5716 5714 5712 5710 5708 5707 5704
5732 5734 5727 5715 5722 5728 5724 5722 5726 5730 5726 5722 5722 5721 5724 5725 5726 5727 5728 5729 5730 5730 5730 5730 5729 5729 5729 5729 5729 5729 5728 5727 5725 5723 5720 5719 5718 5716 5714 5712 5709 5707 5706 5704
5734 5730 5728 5727 5727 5727 5725 5723 5723 5726 5730 5726 5725 5722 5723 5725 5724 5725 5725 5725 5725 5725 5726 5726 5726 5726 5726 5726 5726 5726 5725 5724 5723 5720 5718 5717 5717 5715 5712 5710 5707 5706 5703 5702
5732 5727 5726 5720 5721 5723 5720 5721 5721 5721 5724 5725 5722 5719 5726 5727 5726 5723 5723 5722 5720 5720 5721 5722 5723 5723 5723 5723 5723 5723 5721 5721 5720 5717 5715 5714 5713 5711 5709 5707 5705 5703 5701 5700
5725 5726 5720 5717 5718 5718 5713 5721 5721 5720 5724 5724 5720 5721 5723 5720 5718 5719 5719 5718 5717 5717 5717 5718 5719 5719 5719 5720 5720 5718 5718 5717 5715 5714 5712 5710 5708 5706 5705 5704 5702 5699 5698 5697
5721 5721 5719 5716 5711 5698 5718 5725 5724 5720 5718 5721 5721 5720 5719 5717 5717 5717 5716 5715 5714 5713 5713 5714 5715 5715 5716 5716 5716 5715 5714 5712 5710 5708 5707 5705 5703 5701 5700 5699 5697 5696 5696 5695
5717 5716 5713 5711 5706 5707 5712 5717 5718 5715 5710 5716 5716 5715 5715 5715 5715 5712 5711 5711 5710 5709 5709 5709 5710 5711 5711 5710 5710 5709 5708 5706 5704 5702 5701 5700 5699 5696 5695 5693 5692 5692 5691 5690
5707 5713 5712 5705 5699 5698 5713 5718 5720 5716 5706 5713 5714 5712 5711 5711 5708 5705 5705 5704 5704 5703 5703 5703 5704 5704 5703 5703 5703 5702 5701 5699 5697 5696 5695 5695 5693 5691 5689 5688 5688 5687 5686 5684
5700 5701 5702 5702 5701 5709 5710 5711 5712 5700 5706 5709 5710 5708 5707 5706 5706 5702 5701 5698 5697 5696 5695 5695 5695 5695 5694 5695 5695 5694 5693 5692 5691 5689 5688 5687 5686 5684 5683 5682 5681 5680 5680 5679
5703 5700 5698 5699 5695 5698 5702 5704 5704 5705 5708 5706 5704 5703 5700 5698 5695 5693 5692 5690 5689 5688 5687 5687 5687 5686 5686 5686 5685 5685 5683 5683 5683 5681 5680 5679 5678 5677 5676 5674 5673 5673 5672 5671
5697 5700 5702 5702 5697 5695 5697 5698 5699 5701 5699 5697 5695 5693 5691 5688 5686 5685 5684 5683 5681 5680 5679 5678 5677 5677 5677 5677 5675 5674 5674 5674 5673 5672 5671 5670 5670 5669 5667 5666 5665 5664 5663 5663
5688 5686 5689 5689 5687 5686 5687 5688 5689 5690 5688 5687 5686 5684 5683 5680 5679 5677 5675 5674 5672 5671 5670 5669 5669 5668 5667 5667 5665 5664 5664 5664 5663 5663 5662 5661 5661 5659 5658 5655 5655 5654 5653 5653
5680 5680 5682 5682 5679 5677 5676 5678 5679 5678 5678 5677 5676 5675 5673 5671 5669 5668 5667 5665 5663 5662 5661 5660 5658 5657 5656 5657 5656 5654 5654 5653 5653 5653 5652 5651 5650 5648 5646 5645 5644 5643 5643 5642
5674 5674 5675 5677 5678 5676 5672 5671 5670 5667 5666 5666 5664 5662 5662 5661 5659 5658 5657 5655 5653 5652 5651 5649 5648 5646 5646 5645 5644 5643 5642 5641 5641 5641 5640 5638 5637 5636 5634 5633 5633 5631 5629 5628